Terug naar catalogus

STARLINK-31369

ActiefCommunicatieVLEO
NORAD 58975·PAYLOAD·🇺🇸 United States

Gelanceerd Feb 15, 2024 vanaf Vandenberg Space Force Base

Loading…

Volgende Passages (komende 24 uur)

TLE

VersSource: CelesTrak SupGP

Epoch: Sep 15, 2026, 03:25 UTC

1 58975C 24031L   26258.14284722  .00042297  00000+0  12497-2 0  2583
2 58975  53.1557 134.4118 0001267  80.9713 207.6465 15.34368142    16

Volg STARLINK-31369 in realtime met AllMySat

Download on the App Store